Погода в Чурачиках

Россия / Чувашская Республика     55°43′34″N   47°25′55″E
темп.,
°C
ветер,
м/с
пор.,
м/с
влажн.,
%
обл.,
%
осадки,
мм/ч
давл.,
гПа
погр.,
м
4 августа, ср
ср400:00+18юз2393100 0.3 101058
03:00+18юз2295100 0.3 101138
06:00+20зюз2389100 0.0 1011119
09:00+20зюз4586100 0.7 1012336
12:00+19сз2286100 2.5 1012151
15:00+24сз34609 2.9 10121196
18:00+23ссв2264100 0.0 101282
21:00+20ссв116723 0.0 101311
5 августа, чт
чт500:00+17сз227672 0.0 101426
03:00+18ссз275795 0.0 1014179
06:00+16ссз4870100 0.0 1016225
09:00+21с575498 0.0 1016740
12:00+23ссз563794 0.0 10162427
15:00+23сз5637100 0.0 10162498
18:00+21сз344968 0.0 1017117
21:00+16с225479 0.0 101711
6 августа, пт
пт600:00+14с225974 0.0 101811
03:00+13ссв1162100 0.0 101811
06:00+16св1160100 0.0 101841
09:00+21в234359 0.0 1018578
12:00+23в2135100 0.0 10181741
15:00+24в2135100 0.0 10171799
18:00+22вюв234896 0.0 101768
21:00+19юв474791 0.0 1017134
7 августа, сб
сб700:00+19юв494564 0.0 1016230
03:00+16ююв495339 0.0 1016170
06:00+17ююв395861 0.0 1017230
09:00+23ю574286 0.0 1017571
12:00+25ю364320 0.0 1017621
15:00+27ююз244441 0.0 1016321
18:00+25ююз334778 0.0 101645
21:00+21ююз225429 0.0 101611
8 августа, вс
вс800:00+19юв225881 0.0 101714
03:00+18ююв225526 0.0 101713
06:00+20юв115542 0.0 101848
09:00+26юв234079 0.0 1018475
12:00+29юв2333100 0.0 10171210
15:00+31юв12289 0.0 10171832
18:00+28всв334168 0.0 101655
21:00+21всв71360100 0.0 1018299